Location: Unnamed
(47.6264°N, 122.3366°W)
Time: 13:22:08
(UTC-07:00)

UPPER FREE FLYER - Pass Details

Date: 11 August 2020
Orbit: 571 x 589 km, 97.7° (Epoch: 01 October)

Event Time Altitude Azimuth Distance (km) Brightness Sun altitude
Exits shadow 22:25:32 33° 115° (ESE) 970 ? -17.1°
Maximum altitude 22:26:46 44° 70° (ENE) 805 ? -17.2°
Drops below altitude 10° 22:30:41 10° 359° (N) 1,900 ? -17.7°
Sets 22:32:55 0° 353° (N) 2,807 ? -17.9°
